Location: ???????
(55.4362°N, 38.1183°E)
Time: 12:41:38
(UTC+00:00)

Cosmos 2219 Rocket - Pass Details

Date: 30 October 2021
Orbit: 826 x 848 km, 71.0° (Epoch: 01 December)

Event Time Altitude Azimuth Distance (km) Brightness Sun altitude
Exits shadow 01:48:20 34° 205° (SSW) 1,374 3.0 -23.0°
Drops below altitude 10° 01:51:51 10° 178° (S) 2,465 4.5 -22.6°
Sets 01:54:23 0° 172° (S) 3,398 5.4 -22.2°
